�������C�����ː����j�^�v���󋵏��
Date,Time,Cs137(Bq/L),Cs134(Bq/L),�S��(Bq/L)
2019/11/01,00:00,0.91,ND,ND
2019/11/01,00:10,0.93,ND,ND
2019/11/01,00:20,0.94,ND,ND
2019/11/01,00:30,0.97,ND,ND
2019/11/01,00:40,0.95,ND,ND
2019/11/01,00:50,0.96,ND,9.0
2019/11/01,01:00,0.98,ND,ND
2019/11/01,01:10,0.98,ND,ND
2019/11/01,01:20,0.97,ND,ND
2019/11/01,01:30,0.97,ND,ND
2019/11/01,01:40,0.99,ND,ND
2019/11/01,01:50,0.98,ND,ND
2019/11/01,02:00,0.98,ND,ND
2019/11/01,02:10,0.98,ND,ND
2019/11/01,02:20,0.98,ND,8.9
2019/11/01,02:30,0.98,ND,ND
2019/11/01,02:40,0.96,ND,ND
2019/11/01,02:50,0.96,ND,8.9
2019/11/01,03:00,0.88,ND,ND
2019/11/01,03:10,0.89,ND,ND
2019/11/01,03:20,0.90,ND,ND
2019/11/01,03:30,0.92,ND,ND
2019/11/01,03:40,0.92,ND,ND
2019/11/01,03:50,0.93,ND,ND
2019/11/01,04:00,0.92,ND,ND
2019/11/01,04:10,0.92,ND,ND
2019/11/01,04:20,0.99,ND,ND
2019/11/01,04:30,0.99,ND,ND
2019/11/01,04:40,0.96,ND,ND
2019/11/01,04:50,0.95,ND,ND
2019/11/01,05:00,0.96,ND,ND
2019/11/01,05:10,0.85,ND,8.9
2019/11/01,05:20,0.86,ND,ND
2019/11/01,05:30,0.84,ND,ND
2019/11/01,05:40,0.85,ND,ND
2019/11/01,05:50,0.93,ND,ND
2019/11/01,06:00,0.92,ND,ND
2019/11/01,06:10,0.92,ND,ND
2019/11/01,06:20,0.92,ND,ND
2019/11/01,06:30,0.95,ND,10
2019/11/01,06:40,0.95,ND,9.5
2019/11/01,06:50,0.97,ND,9.6
2019/11/01,07:00,0.96,ND,9.5
2019/11/01,07:10,0.96,ND,9.5
2019/11/01,07:20,0.96,ND,9.7
2019/11/01,07:30,0.95,ND,9.2
2019/11/01,07:40,0.96,ND,ND
2019/11/01,07:50,0.97,ND,ND
2019/11/01,08:00,0.99,ND,9.0
2019/11/01,08:10,0.98,ND,10
2019/11/01,08:20,0.90,ND,11
2019/11/01,08:30,0.89,ND,ND
2019/11/01,08:40,0.89,ND,ND
2019/11/01,08:50,0.90,ND,ND
2019/11/01,09:00,0.99,ND,ND
2019/11/01,09:10,1.0,ND,ND
2019/11/01,09:20,1.0,ND,ND
2019/11/01,09:30,1.0,ND,ND
2019/11/01,09:40,1.1,ND,ND
2019/11/01,09:50,1.0,ND,ND
2019/11/01,10:00,0.93,ND,ND
2019/11/01,10:10,0.94,ND,ND
2019/11/01,10:20,1.1,ND,ND
2019/11/01,10:30,1.0,ND,ND
2019/11/01,10:40,1.0,ND,ND
2019/11/01,10:50,1.1,ND,ND
2019/11/01,11:00,1.1,ND,ND
2019/11/01,11:10,1.0,ND,ND
2019/11/01,11:20,1.0,ND,ND
2019/11/01,11:30,1.0,ND,ND
2019/11/01,11:40,0.99,ND,ND
2019/11/01,11:50,1.0,ND,ND
2019/11/01,12:00,0.99,ND,8.8
2019/11/01,12:10,1.0,ND,ND
2019/11/01,12:20,1.0,ND,ND
2019/11/01,12:30,0.90,ND,ND
2019/11/01,12:40,0.92,ND,ND
2019/11/01,12:50,1.0,ND,ND
2019/11/01,13:00,0.93,ND,ND
2019/11/01,13:10,0.92,ND,ND
2019/11/01,13:20,1.0,ND,ND
2019/11/01,13:30,1.0,ND,ND
2019/11/01,13:40,1.0,ND,ND
2019/11/01,13:50,1.0,ND,ND
2019/11/01,14:00,0.99,ND,ND
2019/11/01,14:10,1.0,ND,ND
2019/11/01,14:20,1.0,ND,ND
2019/11/01,14:30,1.0,ND,ND
2019/11/01,14:40,1.0,ND,ND
2019/11/01,14:50,1.0,ND,ND
2019/11/01,15:00,1.0,ND,ND
2019/11/01,15:10,1.0,ND,ND
2019/11/01,15:20,1.0,ND,ND
2019/11/01,15:30,1.0,ND,ND
2019/11/01,15:40,1.0,ND,ND
2019/11/01,15:50,1.1,ND,ND
2019/11/01,16:00,1.0,ND,ND
2019/11/01,16:10,0.98,ND,ND
2019/11/01,16:20,1.0,ND,ND
2019/11/01,16:30,0.95,ND,10
2019/11/01,16:40,0.91,ND,ND
2019/11/01,16:50,0.89,ND,9.9
2019/11/01,17:00,0.90,ND,9.7
2019/11/01,17:10,0.90,ND,9.2
2019/11/01,17:20,0.95,ND,8.8
2019/11/01,17:30,0.96,ND,10
2019/11/01,17:40,0.94,ND,12
2019/11/01,17:50,0.92,ND,12
2019/11/01,18:00,0.92,ND,13
2019/11/01,18:10,0.93,ND,14
2019/11/01,18:20,0.92,ND,14
2019/11/01,18:30,0.91,ND,11
2019/11/01,18:40,0.91,ND,10
2019/11/01,18:50,0.95,ND,ND
2019/11/01,19:00,0.96,ND,ND
2019/11/01,19:10,0.96,ND,ND
2019/11/01,19:20,0.99,ND,ND
2019/11/01,19:30,1.0,ND,ND
2019/11/01,19:40,1.0,ND,ND
2019/11/01,19:50,1.0,ND,ND
2019/11/01,20:00,1.0,ND,ND
2019/11/01,20:10,0.97,ND,ND
2019/11/01,20:20,0.93,ND,ND
2019/11/01,20:30,0.93,ND,ND
2019/11/01,20:40,0.93,ND,8.8
2019/11/01,20:50,0.92,ND,8.8
2019/11/01,21:00,0.92,ND,9.5
2019/11/01,21:10,0.93,ND,9.2
2019/11/01,21:20,0.92,ND,12
2019/11/01,21:30,0.93,ND,12
2019/11/01,21:40,0.91,ND,13
2019/11/01,21:50,0.91,ND,12
2019/11/01,22:00,0.89,ND,12
2019/11/01,22:10,0.83,ND,12
2019/11/01,22:20,0.84,ND,12
2019/11/01,22:30,0.90,ND,11
2019/11/01,22:40,0.90,ND,9.0
2019/11/01,22:50,0.92,ND,9.0
2019/11/01,23:00,0.93,ND,ND
2019/11/01,23:10,0.96,ND,ND
2019/11/01,23:20,0.97,ND,ND
2019/11/01,23:30,0.96,ND,ND
2019/11/01,23:40,0.98,ND,ND
2019/11/01,23:50,0.97,ND,ND
